RADUGA 23 [-]

Last updated on Jan. 18, 2020, 4:38 a.m. UTC

1 19928U 89030A   20017.52324539  .00000120  00000-0  00000-0 0  9995
2 19928  14.3446 350.4710 0016045 135.9472 213.2576  1.00313986111358
UTC
Height (km)
Latitude
Longitude
Inclination
Orbital Period
UTC large
Height (km)
Speed (km/s)
/
Latitude / Longitude
Inclination (degrees)
Orbital Period (minutes)
Azimuth
Elevation
Range (km)
Doppler Factor
iOS Compass Heading
iOS Angle

Next 30 passes for location: Hong Kong

Rise time Rise Azimuth (degrees) Set time Set Azimuth (degrees) Duration Max altitude (degrees)

No matching passes for this satellites